Regional Weather Roundup
Issued by NWS

Home | Current Version | Previous Version | Graphics & Text | Print | Product List | Glossary On
Versions: 1 2 3 4 5 6 7 8 9 10 11 12 13 14 15 16 17 18 19 20 21 22 23 24 25 26 27 28 29 30 31 32 33 34 35 36 37 38 39 40 41 42 43 44 45 46 47 48 49 50
000
ASUS43 KLMK 281210
RWRKY
KENTUCKY REGIONAL WEATHER ROUNDUP
NATIONAL WEATHER SERVICE LOUISVILLE KY
800 AM EDT TUE APR 28 2015

NOTE "FAIR" INDICATES FEW OR NO CLOUDS BELOW 12,000 FEET
WITH NO SIGNIFICANT WEATHER AND/OR OBSTRUCTIONS TO VISIBILITY.

KYZ001>023-026-027-061>063-070>075-281300-
WESTERN AND SOUTH CENTRAL KENTUCKY

CITY           SKY/WX    TMP DP  RH WIND       PRES   REMARKS
PADUCAH        PTCLDY    46  40  79 N7        30.06R
HENDERSON      SUNNY     46  37  71 NE9       30.09R
OWENSBORO      SUNNY     47  40  76 NE8       30.09R
HOPKINSVILLE   FAIR      46  40  81 NE9       30.03R
BOWLING GREEN  SUNNY     47  39  74 N3        30.05R
GLASGOW        SUNNY     45  38  77 NE8       30.05R
$$

KYZ024-025-028>034-038-045-046-053-281300-
NORTH CENTRAL KENTUCKY

CITY           SKY/WX    TMP DP  RH WIND       PRES   REMARKS
LOUISVILLE/SDF MOSUNNY   46  38  73 NE8       30.10R
LOUISVILLE/LOU SUNNY     44  38  79 VRB6      30.10R
FORT KNOX      SUNNY     45  37  72 NE7       30.06R
$$

KYZ035>037-039>044-047>052-055>060-089>105-281300-
NORTHEAST KENTUCKY

CITY           SKY/WX    TMP DP  RH WIND       PRES   REMARKS
LEXINGTON      SUNNY     41  36  82 NE8       30.07R
COVINGTON      SUNNY     43  37  79 N6        30.11R
FRANKFORT      SUNNY     44  35  70 NE6       30.07R
$$

KYZ054-064>069-076>088-106>120-281300-
SOUTHEAST KENTUCKY

CITY           SKY/WX    TMP DP  RH WIND       PRES   REMARKS
JACKSON        SUNNY     42  34  73 CALM      30.04R
LONDON         SUNNY     44  34  67 NE6       30.04R
SOMERSET       SUNNY     43  34  70 E3        30.07R
MIDDLESBORO    SUNNY     38  37  95 CALM      30.04R
MONTICELLO     SUNNY     45  39  79 NE3       30.08R
$$



USA.gov is the U.S. government's official web portal to all federal, state and local government web resources and services.